Regional Weather Roundup
Issued by NWS Jackson, KY

Home | Current Version | Previous Version | Graphics & Text | Print | Product List | Glossary On
Versions: 1 2 3 4 5 6 7 8 9 10 11 12 13 14 15 16 17 18 19 20 21 22 23 24 25 26 27 28 29 30 31 32 33 34 35 36 37 38 39 40 41 42 43 44 45 46 47 48 49 50
000
ASUS43 KJKL 240819
RWRJKL

EAST KENTUCKY HOURLY WEATHER ROUNDUP
NATIONAL WEATHER SERVICE JACKSON KY
400 AM EDT FRI OCT 24 2014

NOTE: "FAIR" INDICATES FEW OR NO CLOUDS BELOW 12,000 FEET WITH
NO SIGNIFICANT WEATHER AND/OR OBSTRUCTIONS TO VISIBILITY.

* THESE REPORTS ARE NOT UNDER NWS QUALITY CONTROL AND MAY NOT
  REPORT WEATHER SUCH AS PRECIPITATION AND FOG.

KYZ079-080-083-085-087-088-110-112-115-119-120-240900
...EASTERN KENTUCKY...

CITY           SKY/WX    TMP DP  RH WIND       PRES   REMARKS
JACKSON        CLOUDY    44  40  85 CALM      30.11F
LONDON         MOCLDY    43  40  89 CALM      30.11S
SOMERSET*      CLOUDY    41  41 100 CALM      30.12S
MONTICELLO*    CLOUDY    43  42  96 CALM      30.12F FOG
WILLIAMSBURG*  CLEAR     39  39 100 CALM      30.12
MIDDLESBORO*   MOCLDY    41  40  97 CALM      30.13S
HARLAN APT*    PTSUNNY   41  41 100 CALM      30.12F
HAZARD APT*    SUNNY     41  41 100 CALM      30.12  FOG
BLACK MTN*       N/A     43  36  75 CALM        N/A
PIKEVILLE APT* CLEAR     41  41 100 SE6       30.12S
BIG SANDY*     PTSUNNY   43  42  95 CALM      30.12S
MOREHEAD APT*  PTSUNNY   43  41  93 CALM      30.14S FOG
ASHLAND*       CLOUDY    43  37  81 CALM      30.11R
$$

KYZ035-036-041-042-044-050-067-078-099-240900
...CENTRAL KENTUCKY...

CITY           SKY/WX    TMP DP  RH WIND       PRES   REMARKS
MT STERLING*   MOCLDY    37  37 100 CALM      30.14S FOG
FLEMING/MASON* CLEAR     41  39  93 SW3       30.14R
DANVILLE*      CLOUDY    41  39  93 CALM      30.12F
RICHMOND*      CLOUDY    41  39  93 CALM      30.11S
LEXINGTON      MOCLDY    44  40  85 CALM      30.11F
FRANKFORT      MOCLDY    41  39  93 CALM      30.12R
$$

KYZ091>093-OHZ055-061-077-WVZ005-015-034-035-042-240900
...SOUTHERN OHIO/WEST VIRGINIA...

CITY           SKY/WX    TMP DP  RH WIND       PRES   REMARKS
COVINGTON      MOCLDY    42  39  89 CALM      30.12R
COLUMBUS       CLOUDY    40  37  89 CALM      30.12S
DAYTON         CLOUDY    44  39  82 CALM      30.11F
WILMINGTON     PTCLDY    38  36  92 CALM      30.12R
HUNTINGTON     MOCLDY    40  40 100 SW5       30.12R FOG
CHARLESTON     FOG       42  42 100 CALM      30.12R VSB 1/2
PINEVILLE*     FOG       41  41 100 MISG      30.18R VSB 1/4
BECKLEY        CLOUDY    39  37  92 CALM      30.11R
BLUEFIELD      PTCLDY    39  36  89 W8        30.11S WCI  33
$$

VAZ002-007-008-TNZ017-027-036-066-071-240900
...SOUTHWEST VIRGINIA/EAST TENNESSEE...

CITY           SKY/WX    TMP DP  RH WIND       PRES   REMARKS
WISE*          MOCLDY    39  39 100 CALM      30.11F FOG
JONESVILLE*    PTSUNNY   37  37 100 CALM      30.13F
ABINGDON*      PTCLDY    38  37  98 E3        30.11F FOG
BRISTOL        MOCLDY    40  38  93 CALM      30.12F
KNOXVILLE      CLOUDY    47  42  83 NE8       30.08S
OAK RIDGE      CLOUDY    47  45  93 CALM      30.11F
CROSSVILLE     CLOUDY    46  41  82 CALM      30.09S
NASHVILLE      CLOUDY    50  46  86 S3        30.11S
$$

...KEY TO REMARKS...
VSB - VISIBILITY IN MILES
WCI - WIND CHILL INDEX
HX  - HEAT INDEX

$$



USA.gov is the U.S. government's official web portal to all federal, state and local government web resources and services.